Regional Weather Roundup
Issued by NWS Huntsville, AL

Home | Current Version | Previous Version | Text Only | Print | Product List | Glossary On
Versions: 1 2 3 4 5 6 7 8 9 10 11 12 13 14 15 16 17 18 19 20 21 22 23 24 25 26 27 28 29 30 31 32 33 34 35 36 37 38 39 40 41 42 43 44 45 46 47 48 49 50
996
ASUS44 KHUN 140210
RWRHUN

WEATHER ROUNDUP FOR THE TENNESSEE VALLEY
NATIONAL WEATHER SERVICE HUNTSVILLE AL
800 PM CST SAT FEB 13 2016

ALZ001>004-140300-
NORTHWEST ALABAMA

CITY           SKY/WX    TMP DP  RH WIND       PRES   REMARKS
RUSSELLVILLE     N/A     30 N/A N/A MISG        N/A
SHOALS AIRPORT CLEAR     33   6  32 NE7       30.45S WCI  27
SHOALS TVA RES   N/A     34 N/A N/A MISG        N/A
$$

ALZ005>007-016-140300-
NORTH CENTRAL ALABAMA

CITY           SKY/WX    TMP DP  RH WIND       PRES   REMARKS
CULLMAN AG STN   N/A     30 N/A N/A NE5         N/A  WCI  25
DECATUR AP     CLEAR     29   8  41 NE7       30.45F WCI  22
HUNTSVILLE AP  PTCLDY    30   5  34 NE10      30.43F WCI  21
HUN NWS/UAH      N/A     30   2  30 NE6         N/A  WCI  24
MERIDIANVILLE  CLEAR     30   1  29 NE5       30.44F WCI  25
REDSTONE ARSN  CLEAR     29   6  37 E5        30.43S WCI  24
VINEMONT AP    FAIR      28   8  42 NE3       30.43S
$$

ALZ008>010-140300-
NORTHEAST ALABAMA

CITY           SKY/WX    TMP DP  RH WIND       PRES   REMARKS
ALBERTVILLE    CLEAR     30  16  55 N7        30.39F WCI  23
FORT PAYNE     CLEAR     30   7  37 CALM      30.42R
SCOTTSBORO AP  CLEAR     32   5  32 N6        30.45R WCI  26
SCOTTSBORO HCN   N/A     30 N/A N/A MISG        N/A
VALLEY HEAD      N/A     28 N/A N/A MISG        N/A
$$

TNZ076-096-097-140300-
SOUTHEASTERN MIDDLE TENNESSEE

CITY           SKY/WX    TMP DP  RH WIND       PRES   REMARKS
TULLAHOMA      CLEAR     21   3  45 N5        30.44R WCI  15
WINCHESTER     PTCLDY    25   7  46 N6        30.44S WCI  18
$$

...SURROUNDING SITES...

CITY           SKY/WX    TMP DP  RH WIND       PRES   REMARKS
ATLANTA        CLEAR     34   5  29 N9        30.38S WCI  27
ANNISTON       CLEAR     36   6  28 N6        30.41F WCI  31
BIRMINGHAM     CLEAR     34   9  35 N7        30.44R WCI  28
CHATTANOOGA    PTCLDY    30   5  34 N9        30.44S WCI  22
DALTON         CLEAR     30  10  43 N6        30.43S WCI  24
GADSDEN        CLEAR     32  11  41 N5        30.43F WCI  27
GOLDEN TRNGL   CLEAR     37  16  41 N7        30.42R WCI  32
HALEYVILLE     FAIR      29  12  49 CALM      30.43S
JACKSON TN     CLOUDY    30   6  36 E7        30.44F WCI  23
MEMPHIS        CLOUDY    33   9  36 E9        30.41F WCI  25
NASHVILLE      CLOUDY    27   4  37 NE8       30.49F WCI  19
OXFORD MS      FAIR      32   5  32 E7        30.41F WCI  26
ROME           CLEAR     31   6  35 N5        30.41S WCI  26
SAVANNAH       CLOUDY    32   5  32 CALM      30.43F
TUPELO         CLEAR     32  10  40 N7        30.43F WCI  26
TUSCALOOSA     CLEAR     37  13  37 NE6       30.44R WCI  32
$$

...GULF COAST WEATHER...

CITY           SKY/WX    TMP DP  RH WIND       PRES   REMARKS
GULFPORT       CLEAR     51  31  46 NE5       30.35R
PASCAGOULA     CLEAR     45  30  55 NE5       30.37R
MOBILE         CLEAR     47  23  38 N8        30.37R
GULF SHORES    CLEAR     47  23  39 N3        30.36R
PENSACOLA      CLEAR     48  21  34 N6        30.35R
DESTIN         CLEAR     53  24  32 N6        30.34S
PANAMA CITY    CLEAR     50  26  38 N6        30.34S
APPALACHICOLA  CLEAR     50  23  34 NE9       30.33S
$$





USA.gov is the U.S. government's official web portal to all federal, state and local government web resources and services.